Flag for Austria Weather past 2 weeks in Leoben, Styria, Austria

Now
72 °F

Partly sunny.


Feels Like: 76 °F
Forecast: 54 / 72 °F
Wind: 5 mph from Southwest

Location: Zeltweg

Current Time: Jul 29, 2014 at 9:16:27 PM

Latest Report: Jul 29, 2014 at 7:50 PM


Visibility: 15 mi

Pressure: 29.77 "Hg

Humidity: 61%

Dew point: 57 °F

Location of LeobenLocation

Historic Weather in Leoben — Graph

°F

Leoben temperature yesterday

Maximum temperature yesterday: 75 °F (at 2:20 PM)
Minimum temperature yesterday: 61 °F (at 4:50 AM)
Average temperature yesterday: 67 °F

Past Weeks' High & Low Weather Summary

 TemperatureHumidityPressure
High86 °F (Jul 20, 12:50 PM)100% (Jul 15, 4:50 AM)30.24 "Hg (Jul 15, 4:50 AM)
Low46 °F (Jul 24, 5:50 AM)32% (Jul 18, 6:50 PM)29.77 "Hg (Jul 29, 4:20 PM)
Average67 °F72%30.00 "Hg
* Reported Jul 14 7:50 PM — Jul 29 7:50 PM, Leoben, Weather by CustomWeather, © 2014

Note: Actual official high and low records may vary slightly from our data, if they occured in-between our weather recording intervals... More about our weather records

Advertising

Leoben weather history for previous 24 hours

 ConditionsComfort  
Time TempWeatherWind HumidityBarometerVisibility
7:50 PM
Jul 29
72 °FPartly sunny.5 mph61%29.77 "Hg16 mi
6:50 PM72 °FPartly sunny.3 mph61%29.77 "Hg16 mi
5:50 PM72 °FBroken clouds.6 mph61%29.77 "Hg16 mi
4:50 PM73 °FBroken clouds.13 mph53%29.77 "Hg16 mi
4:20 PM75 °FBroken clouds.10 mph54%29.77 "Hg16 mi
3:50 PM75 °FPartly sunny.10 mph50%29.80 "Hg16 mi
3:20 PM75 °FPartly sunny.10 mph50%29.80 "Hg16 mi
2:50 PM75 °FBroken clouds.12 mph47%29.80 "Hg16 mi
2:20 PM73 °FBroken clouds.10 mph53%29.80 "Hg16 mi
1:50 PM73 °FBroken clouds.10 mph57%29.80 "Hg16 mi
1:20 PM73 °FPartly sunny.9 mph57%29.80 "Hg16 mi
12:50 PM75 °FPartly sunny.6 mph57%29.80 "Hg16 mi
12:20 PM73 °FPartly sunny.6 mph61%29.80 "Hg16 mi
11:50 AM73 °FPartly sunny.2 mph65%29.80 "Hg16 mi
11:20 AM72 °FPartly sunny.6 mph65%29.83 "Hg16 mi
10:50 AM70 °FPartly sunny.6 mph73%29.83 "Hg16 mi
10:20 AM72 °FScattered clouds.3 mph65%29.83 "Hg12 mi
9:50 AM70 °FPassing clouds.2 mph73%29.83 "Hg12 mi
9:20 AM68 °FPassing clouds.2 mph78%29.83 "Hg7 mi
8:50 AM64 °FScattered clouds.2 mph88%29.83 "Hg6 mi
8:20 AM64 °FBroken clouds.2 mph88%29.83 "Hg6 mi
7:50 AM63 °FBroken clouds.2 mph88%29.83 "Hg6 mi
7:20 AM61 °FBroken clouds.2 mph94%29.83 "Hg6 mi
6:50 AM61 °FPartly sunny.1 mph100%29.83 "Hg6 mi
5:50 AM61 °FPassing clouds.1 mph94%29.83 "Hg6 mi
10:50 PM
Jul 28
64 °FPartly cloudy.1 mph88%29.86 "Hg16 mi
9:50 PM66 °FPartly cloudy.2 mph83%29.89 "Hg16 mi
Weather by CustomWeather, © 2014

See weather overviewHow to use our weather pages